Time,TemperatureF,DewpointF,PressureIn,WindDirection,WindDirectionDegrees,WindSpeedMPH,WindSpeedGustMPH,Humidity,HourlyPrecipIn,Conditions,Clouds,dailyrainin,SoftwareType,DateUTC
2013-03-28 00:02:00,36.0,-99.9,-100.00,SSE,150,3.0,-999.0,-999,0.00,,,0.00,,2013-03-28 05:02:00,
2013-03-28 00:13:00,36.0,-99.9,-100.00,SSE,150,3.0,-999.0,-999,0.00,,,0.00,,2013-03-28 05:13:00,
2013-03-28 00:22:00,36.0,-99.9,-100.00,SSE,150,3.0,-999.0,-999,0.00,,,0.00,,2013-03-28 05:22:00,
2013-03-28 00:33:00,36.0,-99.9,-100.00,SE,133,2.0,-999.0,-999,0.00,,,0.00,,2013-03-28 05:33:00,
2013-03-28 00:43:00,36.0,-99.9,-100.00,SE,133,2.0,-999.0,-999,0.00,,,0.00,,2013-03-28 05:43:00,
2013-03-28 00:52:00,36.0,-99.9,-100.00,SE,133,2.0,-999.0,-999,0.00,,,0.00,,2013-03-28 05:52:00,
2013-03-28 01:02:00,36.0,-99.9,-100.00,South,174,1.0,-999.0,-999,0.00,,,0.00,,2013-03-28 06:02:00,
2013-03-28 01:13:00,36.0,-99.9,-100.00,South,174,1.0,-999.0,-999,0.00,,,0.00,,2013-03-28 06:13:00,
2013-03-28 01:22:00,36.0,-99.9,-100.00,South,174,1.0,-999.0,-999,0.00,,,0.00,,2013-03-28 06:22:00,
2013-03-28 01:33:00,36.0,-99.9,-100.00,SSE,147,2.0,-999.0,-999,0.00,,,0.00,,2013-03-28 06:33:00,
2013-03-28 01:43:00,36.0,-99.9,-100.00,SSE,147,2.0,-999.0,-999,0.00,,,0.00,,2013-03-28 06:43:00,
2013-03-28 01:52:00,36.0,-99.9,-100.00,SSE,147,2.0,-999.0,-999,0.00,,,0.00,,2013-03-28 06:52:00,
2013-03-28 02:02:00,36.0,-99.9,-100.00,SE,130,4.0,-999.0,-999,0.00,,,0.00,,2013-03-28 07:02:00,
2013-03-28 02:13:00,36.0,-99.9,-100.00,SE,130,4.0,-999.0,-999,0.00,,,0.00,,2013-03-28 07:13:00,
2013-03-28 02:22:00,36.0,-99.9,-100.00,SE,130,4.0,-999.0,-999,0.00,,,0.00,,2013-03-28 07:22:00,
2013-03-28 02:32:00,34.0,-99.9,-100.00,SSE,150,3.0,-999.0,-999,0.00,,,0.00,,2013-03-28 07:32:00,
2013-03-28 02:42:00,34.0,-99.9,-100.00,SSE,150,3.0,-999.0,-999,0.00,,,0.00,,2013-03-28 07:42:00,
2013-03-28 02:52:00,34.0,-99.9,-100.00,SSE,150,3.0,-999.0,-999,0.00,,,0.00,,2013-03-28 07:52:00,
2013-03-28 03:03:00,35.0,-99.9,-100.00,SE,144,3.0,-999.0,-999,0.00,,,0.00,,2013-03-28 08:03:00,
2013-03-28 03:12:00,35.0,-99.9,-100.00,SE,144,3.0,-999.0,-999,0.00,,,0.00,,2013-03-28 08:12:00,
2013-03-28 03:22:00,35.0,-99.9,-100.00,SE,144,3.0,-999.0,-999,0.00,,,0.00,,2013-03-28 08:22:00,
2013-03-28 03:33:00,35.0,-99.9,-100.00,SE,133,3.0,-999.0,-999,0.00,,,0.00,,2013-03-28 08:33:00,
2013-03-28 03:42:00,35.0,-99.9,-100.00,SE,133,3.0,-999.0,-999,0.00,,,0.00,,2013-03-28 08:42:00,
2013-03-28 03:52:00,35.0,-99.9,-100.00,SE,133,3.0,-999.0,-999,0.00,,,0.00,,2013-03-28 08:52:00,
2013-03-28 04:02:00,34.0,-99.9,-100.00,SE,126,3.0,-999.0,-999,0.00,,,0.00,,2013-03-28 09:02:00,
2013-03-28 04:12:00,34.0,-99.9,-100.00,SE,126,3.0,-999.0,-999,0.00,,,0.00,,2013-03-28 09:12:00,
2013-03-28 04:22:00,34.0,-99.9,-100.00,SE,126,3.0,-999.0,-999,0.00,,,0.00,,2013-03-28 09:22:00,
2013-03-28 04:33:00,34.0,-99.9,-100.00,SSE,149,2.0,-999.0,-999,0.00,,,0.00,,2013-03-28 09:33:00,
2013-03-28 04:42:00,34.0,-99.9,-100.00,SSE,149,2.0,-999.0,-999,0.00,,,0.00,,2013-03-28 09:42:00,
2013-03-28 04:52:00,34.0,-99.9,-100.00,SSE,149,2.0,-999.0,-999,0.00,,,0.00,,2013-03-28 09:52:00,
2013-03-28 05:03:00,34.0,-99.9,-100.00,SSE,148,2.0,-999.0,-999,0.00,,,0.00,,2013-03-28 10:03:00,
2013-03-28 05:12:00,34.0,-99.9,-100.00,SSE,148,2.0,-999.0,-999,0.00,,,0.00,,2013-03-28 10:12:00,
2013-03-28 05:22:00,34.0,-99.9,-100.00,SSE,148,2.0,-999.0,-999,0.00,,,0.00,,2013-03-28 10:22:00,
2013-03-28 05:30:00,33.0,-99.9,-100.00,SSE,152,3.0,-999.0,-999,0.00,,,0.00,,2013-03-28 10:30:00,
2013-03-28 05:33:00,34.0,-99.9,-100.00,SE,126,3.0,-999.0,-999,0.00,,,0.00,,2013-03-28 10:33:00,
2013-03-28 05:43:00,34.0,-99.9,-100.00,SE,126,3.0,-999.0,-999,0.00,,,0.00,,2013-03-28 10:43:00,
2013-03-28 05:53:00,34.0,-99.9,-100.00,SE,126,3.0,-999.0,-999,0.00,,,0.00,,2013-03-28 10:53:00,
2013-03-28 06:00:00,34.0,-99.9,-100.00,SSE,148,3.0,-999.0,-999,0.00,,,0.00,,2013-03-28 11:00:00,
2013-03-28 06:03:00,33.0,-99.9,-100.00,SSE,152,3.0,-999.0,-999,0.00,,,0.00,,2013-03-28 11:03:00,
2013-03-28 06:12:00,33.0,-99.9,-100.00,SSE,152,3.0,-999.0,-999,0.00,,,0.00,,2013-03-28 11:12:00,
2013-03-28 06:23:00,33.0,-99.9,-100.00,SSE,152,3.0,-999.0,-999,0.00,,,0.00,,2013-03-28 11:23:00,
2013-03-28 06:30:00,34.0,-99.9,-100.00,ESE,123,4.0,-999.0,-999,0.00,,,0.00,,2013-03-28 11:30:00,
2013-03-28 06:43:00,34.0,-99.9,-100.00,SSE,148,3.0,-999.0,-999,0.00,,,0.00,,2013-03-28 11:43:00,
2013-03-28 06:52:00,34.0,-99.9,-100.00,SSE,148,3.0,-999.0,-999,0.00,,,0.00,,2013-03-28 11:52:00,
2013-03-28 07:00:00,34.0,-99.9,-100.00,SE,125,5.0,-999.0,-999,0.00,,,0.00,,2013-03-28 12:00:00,
2013-03-28 07:22:00,34.0,-99.9,-100.00,ESE,123,4.0,-999.0,-999,0.00,,,0.00,,2013-03-28 12:22:00,
2013-03-28 07:30:00,34.0,-99.9,-100.00,SE,141,4.0,-999.0,-999,0.00,,,0.00,,2013-03-28 12:30:00,
2013-03-28 08:00:00,36.0,-99.9,-100.00,ESE,123,4.0,-999.0,-999,0.00,,,0.00,,2013-03-28 13:00:00,
2013-03-28 08:30:00,37.0,-99.9,-100.00,SE,128,6.0,-999.0,-999,0.00,,,0.00,,2013-03-28 13:30:00,
2013-03-28 08:52:00,36.0,-99.9,-100.00,ESE,123,4.0,-999.0,-999,0.00,,,0.00,,2013-03-28 13:52:00,
2013-03-28 09:23:00,37.0,-99.9,-100.00,SE,128,6.0,-999.0,-999,0.00,,,0.00,,2013-03-28 14:23:00,
2013-03-28 09:42:00,40.0,-99.9,-100.00,SE,127,7.0,-999.0,-999,0.00,,,0.00,,2013-03-28 14:42:00,
2013-03-28 09:52:00,40.0,-99.9,-100.00,SE,127,7.0,-999.0,-999,0.00,,,0.00,,2013-03-28 14:52:00,
2013-03-28 10:02:00,41.0,-99.9,-100.00,SE,132,7.0,-999.0,-999,0.00,,,-99.99,,2013-03-28 15:02:00,
2013-03-28 10:12:00,41.0,-99.9,-100.00,SE,132,7.0,-999.0,-999,0.00,,,-99.99,,2013-03-28 15:12:00,
2013-03-28 10:22:00,41.0,-99.9,-100.00,SE,132,7.0,-999.0,-999,0.00,,,-99.99,,2013-03-28 15:22:00,
2013-03-28 10:33:00,42.0,-99.9,-100.00,SE,126,9.0,-999.0,-999,0.00,,,0.00,,2013-03-28 15:33:00,
2013-03-28 10:43:00,42.0,-99.9,-100.00,SE,126,9.0,-999.0,-999,0.00,,,0.00,,2013-03-28 15:43:00,
2013-03-28 10:53:00,42.0,-99.9,-100.00,SE,126,9.0,-999.0,-999,0.00,,,0.00,,2013-03-28 15:53:00,
2013-03-28 11:03:00,43.0,-99.9,-100.00,SE,128,10.0,-999.0,-999,0.00,,,0.00,,2013-03-28 16:03:00,
2013-03-28 11:13:00,43.0,-99.9,-100.00,SE,128,10.0,-999.0,-999,0.00,,,0.00,,2013-03-28 16:13:00,
2013-03-28 11:23:00,43.0,-99.9,-100.00,SE,128,10.0,-999.0,-999,0.00,,,0.00,,2013-03-28 16:23:00,
2013-03-28 11:32:00,44.0,-99.9,-100.00,ESE,116,11.0,-999.0,-999,0.00,,,0.00,,2013-03-28 16:32:00,
2013-03-28 11:42:00,44.0,-99.9,-100.00,ESE,116,11.0,-999.0,-999,0.00,,,0.00,,2013-03-28 16:42:00,
2013-03-28 11:52:00,44.0,-99.9,-100.00,ESE,116,11.0,-999.0,-999,0.00,,,0.00,,2013-03-28 16:52:00,
2013-03-28 12:02:00,46.0,-99.9,-100.00,SE,136,8.0,-999.0,-999,0.00,,,0.00,,2013-03-28 17:02:00,
2013-03-28 12:12:00,46.0,-99.9,-100.00,SE,136,8.0,-999.0,-999,0.00,,,0.00,,2013-03-28 17:12:00,
2013-03-28 12:22:00,46.0,-99.9,-100.00,SE,136,8.0,-999.0,-999,0.00,,,0.00,,2013-03-28 17:22:00,
2013-03-28 12:32:00,47.0,-99.9,-100.00,SE,136,10.0,-999.0,-999,0.00,,,0.00,,2013-03-28 17:32:00,
2013-03-28 12:42:00,47.0,-99.9,-100.00,SE,136,10.0,-999.0,-999,0.00,,,0.00,,2013-03-28 17:42:00,
2013-03-28 12:53:00,47.0,-99.9,-100.00,SE,136,10.0,-999.0,-999,0.00,,,0.00,,2013-03-28 17:53:00,
2013-03-28 13:03:00,47.0,-99.9,-100.00,ESE,117,8.0,-999.0,-999,0.00,,,0.00,,2013-03-28 18:03:00,
2013-03-28 13:12:00,47.0,-99.9,-100.00,ESE,117,8.0,-999.0,-999,0.00,,,0.00,,2013-03-28 18:12:00,
2013-03-28 13:22:00,47.0,-99.9,-100.00,ESE,117,8.0,-999.0,-999,0.00,,,0.00,,2013-03-28 18:22:00,
2013-03-28 13:32:00,48.0,-99.9,-100.00,SE,141,10.0,-999.0,-999,0.00,,,0.00,,2013-03-28 18:32:00,
2013-03-28 13:42:00,48.0,-99.9,-100.00,SE,141,10.0,-999.0,-999,0.00,,,0.00,,2013-03-28 18:42:00,
2013-03-28 13:53:00,48.0,-99.9,-100.00,SE,141,10.0,-999.0,-999,0.00,,,0.00,,2013-03-28 18:53:00,
2013-03-28 14:00:00,50.0,-99.9,-100.00,SE,144,7.0,-999.0,-999,0.00,,,0.00,,2013-03-28 19:00:00,
2013-03-28 14:02:00,49.0,-99.9,-100.00,SE,126,8.0,-999.0,-999,0.00,,,0.00,,2013-03-28 19:02:00,
2013-03-28 14:12:00,49.0,-99.9,-100.00,SE,126,8.0,-999.0,-999,0.00,,,0.00,,2013-03-28 19:12:00,
2013-03-28 14:23:00,49.0,-99.9,-100.00,SE,126,8.0,-999.0,-999,0.00,,,0.00,,2013-03-28 19:23:00,
2013-03-28 14:33:00,50.0,-99.9,-100.00,SE,144,7.0,-999.0,-999,0.00,,,0.00,,2013-03-28 19:33:00,
2013-03-28 14:43:00,50.0,-99.9,-100.00,SE,144,7.0,-999.0,-999,0.00,,,0.00,,2013-03-28 19:43:00,
2013-03-28 14:53:00,50.0,-99.9,-100.00,SE,144,7.0,-999.0,-999,0.00,,,0.00,,2013-03-28 19:53:00,
2013-03-28 15:13:00,50.0,-99.9,-100.00,ESE,114,9.0,-999.0,-999,0.00,,,0.00,,2013-03-28 20:13:00,
2013-03-28 15:22:00,50.0,-99.9,-100.00,ESE,114,9.0,-999.0,-999,0.00,,,0.00,,2013-03-28 20:22:00,
2013-03-28 15:33:00,52.0,-99.9,-100.00,SE,130,8.0,-999.0,-999,0.00,,,0.00,,2013-03-28 20:33:00,
2013-03-28 15:43:00,52.0,-99.9,-100.00,SE,130,8.0,-999.0,-999,0.00,,,0.00,,2013-03-28 20:43:00,
2013-03-28 15:53:00,52.0,-99.9,-100.00,SE,130,8.0,-999.0,-999,0.00,,,0.00,,2013-03-28 20:53:00,
2013-03-28 16:03:00,51.0,-99.9,-100.00,SE,135,8.0,-999.0,-999,0.00,,,0.00,,2013-03-28 21:03:00,
2013-03-28 16:12:00,51.0,-99.9,-100.00,SE,135,8.0,-999.0,-999,0.00,,,0.00,,2013-03-28 21:12:00,
2013-03-28 16:22:00,51.0,-99.9,-100.00,SE,135,8.0,-999.0,-999,0.00,,,0.00,,2013-03-28 21:22:00,
2013-03-28 16:33:00,52.0,-99.9,-100.00,SE,136,9.0,-999.0,-999,0.00,,,0.00,,2013-03-28 21:33:00,
2013-03-28 16:43:00,52.0,-99.9,-100.00,SE,136,9.0,-999.0,-999,0.00,,,0.00,,2013-03-28 21:43:00,
2013-03-28 16:53:00,52.0,-99.9,-100.00,SE,136,9.0,-999.0,-999,0.00,,,0.00,,2013-03-28 21:53:00,
2013-03-28 17:03:00,52.0,-99.9,-100.00,SE,127,8.0,-999.0,-999,0.00,,,0.00,,2013-03-28 22:03:00,
2013-03-28 17:13:00,52.0,-99.9,-100.00,SE,127,8.0,-999.0,-999,0.00,,,0.00,,2013-03-28 22:13:00,
2013-03-28 17:23:00,52.0,-99.9,-100.00,SE,127,8.0,-999.0,-999,0.00,,,0.00,,2013-03-28 22:23:00,
2013-03-28 17:32:00,52.0,-99.9,-100.00,SE,130,8.0,-999.0,-999,0.00,,,0.00,,2013-03-28 22:32:00,
2013-03-28 17:53:00,52.0,-99.9,-100.00,SE,130,8.0,-999.0,-999,0.00,,,0.00,,2013-03-28 22:53:00,
2013-03-28 18:03:00,51.0,-99.9,-100.00,SE,129,10.0,-999.0,-999,0.00,,,0.00,,2013-03-28 23:03:00,
2013-03-28 18:12:00,51.0,-99.9,-100.00,SE,129,10.0,-999.0,-999,0.00,,,0.00,,2013-03-28 23:12:00,
2013-03-28 18:22:00,51.0,-99.9,-100.00,SE,129,10.0,-999.0,-999,0.00,,,0.00,,2013-03-28 23:22:00,
2013-03-28 18:32:00,51.0,-99.9,-100.00,SE,135,7.0,-999.0,-999,0.00,,,0.00,,2013-03-28 23:32:00,
2013-03-28 18:42:00,51.0,-99.9,-100.00,SE,135,7.0,-999.0,-999,0.00,,,0.00,,2013-03-28 23:42:00,
2013-03-28 18:53:00,51.0,-99.9,-100.00,SE,135,7.0,-999.0,-999,0.00,,,0.00,,2013-03-28 23:53:00,
2013-03-28 19:03:00,49.0,-99.9,-100.00,SE,127,8.0,-999.0,-999,0.00,,,0.00,,2013-03-29 00:03:00,
2013-03-28 19:12:00,49.0,-99.9,-100.00,SE,127,8.0,-999.0,-999,0.00,,,0.00,,2013-03-29 00:12:00,
2013-03-28 19:22:00,49.0,-99.9,-100.00,SE,127,8.0,-999.0,-999,0.00,,,0.00,,2013-03-29 00:22:00,
2013-03-28 19:33:00,48.0,-99.9,-100.00,ESE,115,6.0,-999.0,-999,0.00,,,0.00,,2013-03-29 00:33:00,
2013-03-28 19:43:00,48.0,-99.9,-100.00,ESE,115,6.0,-999.0,-999,0.00,,,0.00,,2013-03-29 00:43:00,
2013-03-28 19:52:00,48.0,-99.9,-100.00,ESE,115,6.0,-999.0,-999,0.00,,,0.00,,2013-03-29 00:52:00,
2013-03-28 20:03:00,46.0,-99.9,-100.00,ESE,117,6.0,-999.0,-999,0.00,,,0.00,,2013-03-29 01:03:00,
2013-03-28 20:12:00,46.0,-99.9,-100.00,ESE,117,6.0,-999.0,-999,0.00,,,0.00,,2013-03-29 01:12:00,
2013-03-28 20:23:00,46.0,-99.9,-100.00,ESE,117,6.0,-999.0,-999,0.00,,,0.00,,2013-03-29 01:23:00,
2013-03-28 20:33:00,46.0,-99.9,-100.00,ESE,102,6.0,-999.0,-999,0.00,,,0.00,,2013-03-29 01:33:00,
2013-03-28 20:42:00,46.0,-99.9,-100.00,ESE,102,6.0,-999.0,-999,0.00,,,0.00,,2013-03-29 01:42:00,
2013-03-28 20:53:00,46.0,-99.9,-100.00,ESE,102,6.0,-999.0,-999,0.00,,,0.00,,2013-03-29 01:53:00,
2013-03-28 21:03:00,45.0,-99.9,-100.00,ESE,110,6.0,-999.0,-999,0.00,,,0.00,,2013-03-29 02:03:00,
2013-03-28 21:12:00,45.0,-99.9,-100.00,ESE,110,6.0,-999.0,-999,0.00,,,0.00,,2013-03-29 02:12:00,
2013-03-28 21:22:00,45.0,-99.9,-100.00,ESE,110,6.0,-999.0,-999,0.00,,,0.00,,2013-03-29 02:22:00,
2013-03-28 21:33:00,44.0,-99.9,-100.00,East,93,6.0,-999.0,-999,0.00,,,0.00,,2013-03-29 02:33:00,
2013-03-28 21:42:00,44.0,-99.9,-100.00,East,93,6.0,-999.0,-999,0.00,,,0.00,,2013-03-29 02:42:00,
2013-03-28 21:53:00,44.0,-99.9,-100.00,East,93,6.0,-999.0,-999,0.00,,,0.00,,2013-03-29 02:53:00,
2013-03-28 22:03:00,44.0,-99.9,-100.00,ESE,109,8.0,-999.0,-999,0.00,,,0.00,,2013-03-29 03:03:00,
2013-03-28 22:12:00,44.0,-99.9,-100.00,ESE,109,8.0,-999.0,-999,0.00,,,0.00,,2013-03-29 03:12:00,
2013-03-28 22:22:00,44.0,-99.9,-100.00,ESE,109,8.0,-999.0,-999,0.00,,,0.00,,2013-03-29 03:22:00,
2013-03-28 22:33:00,43.0,-99.9,-100.00,SE,124,7.0,-999.0,-999,0.00,,,0.00,,2013-03-29 03:33:00,
2013-03-28 22:43:00,43.0,-99.9,-100.00,SE,124,7.0,-999.0,-999,0.00,,,0.00,,2013-03-29 03:43:00,
2013-03-28 22:53:00,43.0,-99.9,-100.00,SE,124,7.0,-999.0,-999,0.00,,,0.00,,2013-03-29 03:53:00,
2013-03-28 23:03:00,42.0,-99.9,-100.00,SE,135,4.0,-999.0,-999,0.00,,,0.00,,2013-03-29 04:03:00,
2013-03-28 23:13:00,42.0,-99.9,-100.00,SE,135,4.0,-999.0,-999,0.00,,,0.00,,2013-03-29 04:13:00,
2013-03-28 23:23:00,42.0,-99.9,-100.00,SE,135,4.0,-999.0,-999,0.00,,,0.00,,2013-03-29 04:23:00,
2013-03-28 23:33:00,42.0,-99.9,-100.00,ESE,115,3.0,-999.0,-999,0.00,,,0.00,,2013-03-29 04:33:00,
2013-03-28 23:43:00,42.0,-99.9,-100.00,ESE,115,3.0,-999.0,-999,0.00,,,0.00,,2013-03-29 04:43:00,
2013-03-28 23:53:00,42.0,-99.9,-100.00,ESE,115,3.0,-999.0,-999,0.00,,,0.00,,2013-03-29 04:53:00,